Tracking 33485 objects as of 15-Mar-2026
HD Live streaming from Space Station
objects crossing your sky now

STARLINK-31881

Track STARLINK-31881 now!
10-day predictions
STARLINK-31881 is classified as:


NORAD ID: 59659
Int'l Code: 2024-084F
Perigee: 489.5 km
Apogee: 490.9 km
Inclination: 43.0 °
Period: 94.3 minutes
Semi major axis: 6861 km
RCS: Unknown
Launch date: May 6, 2024
Source: United States (US)
Launch site: AIR FORCE EASTERN TEST RANGE (AFETR)
Your satellite tracking list
Your tracking list is empty




NASA's NSSDC Master Catalog

Two Line Element Set (TLE):
1 59659U 24084F   26073.83064274  .00005384  00000-0  20512-3 0  9997
2 59659  43.0016   8.9370 0000992 225.5559 134.5211 15.27566402105203
Source of the keplerian elements: AFSPC